TimeCST,TemperatureF,Dew PointF,Humidity,Sea Level PressureIn,VisibilityMPH,Wind Direction,Wind SpeedMPH,Gust SpeedMPH,PrecipitationIn,Events,Conditions,WindDirDegrees,DateUTC
12:48 AM,71.6,62.6,73,30.00,7.0,East,4.6,-,N/A,,Partly Cloudy,100,2013-01-09 06:48:00
1:49 AM,69.8,59.0,68,29.99,7.0,Calm,Calm,-,N/A,,Partly Cloudy,0,2013-01-09 07:49:00
2:50 AM,69.8,60.8,73,30.01,7.0,East,3.5,-,N/A,,Partly Cloudy,80,2013-01-09 08:50:00
3:42 AM,71.6,53.6,53,29.98,7.0,East,5.8,-,N/A,,Scattered Clouds,90,2013-01-09 09:42:00
5:19 AM,71.6,64.4,78,30.00,7.0,East,6.9,-,N/A,,Scattered Clouds,90,2013-01-09 11:19:00
5:49 AM,73.4,60.8,65,29.97,7.0,East,8.1,-,N/A,,Partly Cloudy,100,2013-01-09 11:49:00
6:47 AM,71.6,59.0,64,30.02,8.0,ESE,6.9,-,N/A,,Partly Cloudy,110,2013-01-09 12:47:00
7:43 AM,75.2,60.8,61,30.03,7.0,ESE,11.5,-,N/A,,Partly Cloudy,110,2013-01-09 13:43:00
8:42 AM,77.0,59.0,54,30.09,8.0,ESE,16.1,-,N/A,,Scattered Clouds,110,2013-01-09 14:42:00
9:41 AM,78.8,59.0,51,30.07,8.0,ESE,17.3,-,N/A,,Mostly Cloudy,120,2013-01-09 15:41:00
10:48 AM,78.8,59.0,51,30.06,8.0,ESE,19.6,-,N/A,,Mostly Cloudy,110,2013-01-09 16:48:00
11:46 AM,80.6,64.4,58,30.01,8.0,East,15.0,-,N/A,,Mostly Cloudy,100,2013-01-09 17:46:00
12:52 PM,78.8,60.8,54,30.02,8.0,ESE,17.3,-,N/A,,Mostly Cloudy,120,2013-01-09 18:52:00
1:41 PM,80.6,62.6,54,30.02,8.0,ESE,18.4,-,N/A,,Mostly Cloudy,120,2013-01-09 19:41:00
2:40 PM,78.8,64.4,61,30.02,8.0,East,19.6,-,N/A,,Mostly Cloudy,100,2013-01-09 20:40:00
3:48 PM,78.8,60.8,54,30.00,8.0,ESE,13.8,-,N/A,,Mostly Cloudy,110,2013-01-09 21:48:00
4:40 PM,77.0,64.4,65,30.01,8.0,ESE,17.3,-,N/A,,Scattered Clouds,110,2013-01-09 22:40:00
5:48 PM,75.2,60.8,61,30.00,8.0,East,11.5,-,N/A,,Scattered Clouds,100,2013-01-09 23:48:00
6:45 PM,75.2,60.8,61,30.04,8.0,East,8.1,-,N/A,,Scattered Clouds,100,2013-01-10 00:45:00
7:51 PM,75.2,64.4,69,30.04,8.0,East,13.8,-,N/A,,Scattered Clouds,100,2013-01-10 01:51:00
8:40 PM,75.2,60.8,61,30.07,7.0,ESE,13.8,-,N/A,,Scattered Clouds,110,2013-01-10 02:40:00
9:50 PM,75.2,60.8,61,30.06,7.0,ESE,18.4,-,N/A,,Scattered Clouds,110,2013-01-10 03:50:00
10:44 PM,75.2,60.8,61,30.07,7.0,ESE,16.1,-,N/A,,Scattered Clouds,110,2013-01-10 04:44:00
11:43 PM,75.2,60.8,61,30.03,7.0,ESE,16.1,-,N/A,,Scattered Clouds,110,2013-01-10 05:43:00